Regional Weather Roundup
Issued by NWS Kansas City/Pleasant Hill, MO

Current Version | Previous Version | Text Only | Print | Product List | Glossary On
Versions: 1 2 3 4 5 6 7 8 9 10 11 12 13 14 15 16 17 18 19 20 21 22 23 24 25 26 27 28 29 30 31 32 33 34 35 36 37 38 39 40 41 42 43 44 45 46 47 48 49 50
000
ASUS43 KEAX 261810
RWREAX

WEATHER ROUNDUP FOR EASTERN KANSAS AND NORTHWEST MISSOURI
NATIONAL WEATHER SERVICE KANSAS CITY/PLEASANT HILL MO
100 PM CDT TUE JUL 26 2016

KSZ040-057-103>105-MOZ028-029-037-043-261900-
...KANSAS CITY METROPOLITAN AREA...

CITY           SKY/WX    TMP DP  RH WIND       PRES   REMARKS
K.C. INTL      PTSUNNY   84  66  54 E9G18     30.06F
6HR MIN TEMP:  70; 6HR MAX TEMP:  85;

K.C. DOWNTOWN  SUNNY     86  66  51 NE7       30.04F
6HR MIN TEMP:  73; 6HR MAX TEMP:  87;

LEES SUMMIT    CLOUDY    84  68  58 E10       30.06F
6HR MIN TEMP:  71; 6HR MAX TEMP:  84;

OLATHE - IXD   MOSUNNY   85  66  53 E12       30.06F
6HR MIN TEMP:  68; 6HR MAX TEMP:  85;

OLATHE - OJC   MOSUNNY   84  67  56 NE6       30.06F
6HR MIN TEMP:  70; 6HR MAX TEMP:  84;

LAWRENCE       MOSUNNY   85  69  58 E6        30.05F

$$

MOZ001>008-011>017-020>025-030>033-038>040-044>046-053-054-261900-
...NORTHERN AND CENTRAL MISSOURI...

CITY           SKY/WX    TMP DP  RH WIND       PRES   REMARKS
ST. JOSEPH     PTSUNNY   85  67  54 VRB3      30.06S
6HR MIN TEMP:  66; 6HR MAX TEMP:  86;

MOSBY          CLEAR     82  64  54 E6        30.05F
WHITEMAN AFB   PTSUNNY   83  71  66 E7        30.04F
6HR MIN TEMP:  71; 6HR MAX TEMP:  84;

CLINTON        MOSUNNY   84  72  65 NE6       30.05F
SEDALIA        MOSUNNY   86  71  60 E8        30.06F HX  91
6HR MIN TEMP:  72; 6HR MAX TEMP:  86;

WARSAW         NOT AVBL
CHILLICOTHE      N/A     86  64  47 VRB5      30.07F
6HR MIN TEMP:  68; 6HR MAX TEMP:  86;

KIRKSVILLE     MOSUNNY   85  64  49 VRB5      30.08F
6HR MIN TEMP:  67; 6HR MAX TEMP:  86;


$$

MOZ041-047>049-056>058-063>065-088>090-097-261900-
...EASTERN AND SOUTHERN MISSOURI...

CITY           SKY/WX    TMP DP  RH WIND       PRES   REMARKS
ST. LOUIS INTL PTSUNNY   87  71  58 E3        30.02F HX  93
6HR MIN TEMP:  77; 6HR MAX TEMP:  88;

SPIRIT OF STL  PTSUNNY   87  75  67 N7        30.00F HX  96
COLUMBIA       MOSUNNY   85  71  63 NE8       30.04F HX  90
JEFFERSON CITY SUNNY     87  71  58 NE3       30.02F HX  93
ROLLA          LGT RAIN  82  75  79 NE6       30.02F
OSAGE BEACH    MOSUNNY   84  73  69 VRB5      30.04F HX  90
SPRINGFIELD    CLOUDY    86  72  62 NW3       30.02F HX  92
BRANSON        PTSUNNY   88  73  62 CALM      30.03F HX  96
JOPLIN         PTSUNNY   85  75  72 N7        30.02F HX  93
WEST PLAINS    LGT RAIN  74  70  87 CALM      30.05F

$$

IAZ060-094-KSZ022-034>040-054-083-096-NEZ052-066-093-261900-
...KANSAS...SOUTHEAST NEBRASKA AND IOWA...

CITY           SKY/WX    TMP DP  RH WIND       PRES   REMARKS
TOPEKA         SUNNY     85  66  53 E8        30.05F
6HR MIN TEMP:  66; 6HR MAX TEMP:  86;

MANHATTAN      MOSUNNY   85  69  58 E10       30.05S
EMPORIA        CLOUDY    84  70  62 E12       30.05F
CHANUTE        CLOUDY    84  73  69 NE8       30.02F HX  90
WICHITA        PTSUNNY   86  71  60 E12       30.04F HX  91
OMAHA          PTSUNNY   85  62  46 E5        30.07F
LINCOLN        SUNNY     86  66  51 SE7       30.08F
FALLS CITY     SUNNY     84  68  58 SE8       30.06F
LAMONI         SUNNY     82  66  58 VRB6      30.08F
DES MOINES     MOSUNNY   85  64  49 E7        30.07F

$$




USA.gov is the U.S. government's official web portal to all federal, state and local government web resources and services.